This is the latest recevied weather packets stored in our database for station/object K7FED. If no packets are shown the sender has not sent any weather packets the latest 10 day(s).
| Time | Temp. | Humidity | Pressure | Rain* | Wind** | Luminosity | Snow |
|---|---|---|---|---|---|---|---|
| 1778096061 | 21.67° C | 53% | 1017.9 hPa | 0 mm | - | 90 W/m² | - |
| 1778095761 | 21.11° C | 55% | 1017.9 hPa | 0 mm | - | 349 W/m² | - |
| 1778095461 | 21.11° C | 56% | 1017.9 hPa | 0 mm | - | 783 W/m² | - |
| 1778095162 | 21.11° C | 58% | 1018 hPa | 0 mm | - | 785 W/m² | - |
| 1778094862 | 21.67° C | 56% | 1018 hPa | 0 mm | - | 821 W/m² | - |
| 1778094561 | 21.67° C | 55% | 1018.1 hPa | 0 mm | - | 558 W/m² | - |
| 1778094262 | 21.67° C | 56% | 1018.1 hPa | 0 mm | - | 77 W/m² | - |
| 1778093961 | 21.11° C | 56% | 1018.2 hPa | 0 mm | - | 79 W/m² | - |
| 1778093662 | 21.11° C | 55% | 1018.2 hPa | 0 mm | - | 80 W/m² | - |
| 1778093360 | 20.56° C | 58% | 1018.3 hPa | 0 mm | - | 84 W/m² | - |
| 1778093061 | 20.56° C | 60% | 1018.3 hPa | 0 mm | - | 129 W/m² | - |
| 1778092761 | 20.56° C | 60% | 1018.4 hPa | 0 mm | - | 68 W/m² | - |
| 1778092461 | 20.56° C | 60% | 1018.4 hPa | 0 mm | - | 470 W/m² | - |
| 1778092160 | 20.56° C | 60% | 1018.4 hPa | 0 mm | - | 70 W/m² | - |
| 1778091861 | 20.56° C | 61% | 1018.5 hPa | 0 mm | - | 107 W/m² | - |
| 1778091560 | 20.56° C | 60% | 1018.5 hPa | 0 mm | - | 360 W/m² | - |
| 1778091260 | 20.56° C | 60% | 1018.5 hPa | 0 mm | - | 53 W/m² | - |
| 1778090961 | 20° C | 61% | 1018.4 hPa | 0 mm | - | 141 W/m² | - |
| 1778090660 | 20° C | 62% | 1018.4 hPa | 0 mm | - | 162 W/m² | - |
| 1778090360 | 20° C | 60% | 1018.4 hPa | 0 mm | - | 65 W/m² | - |
| 1778090060 | 20° C | 63% | 1018.5 hPa | 0 mm | - | 82 W/m² | - |
| 1778089759 | 19.44° C | 63% | 1018.5 hPa | 0 mm | - | 195 W/m² | - |
| 1778089460 | 18.89° C | 64% | 1018.6 hPa | 0 mm | - | 164 W/m² | - |
| 1778089150 | 19.44° C | 63% | 1018.6 hPa | 0 mm | - | 60 W/m² | - |
| 1778088846 | 18.89° C | 64% | 1018.5 hPa | 0 mm | - | 46 W/m² | - |
* Rain latest hour (hover to see other rain measurements)
** Current wind speed in m/s (hover to see current wind gust speed)